| time (UTC) | temp F | wind direction | speed MPH | gust MPH | rain 1hr in | rain 24hr in | rain mn in | humidity % | barometer mb |
| 20260504190554 | 72 | 139 | 7.0 | 19.0 | 0.00 | 0.00 | 0.00 | 41 | 1010.7 |
| 20260504190056 | 71 | 141 | 7.0 | 16.0 | 0.00 | 0.00 | 0.00 | 42 | 1010.8 |
| 20260504185553 | 71 | 217 | 8.0 | 16.0 | 0.00 | 0.00 | 0.00 | 42 | 1010.8 |
| 20260504185050 | 71 | 250 | 6.0 | 18.0 | 0.00 | 0.00 | 0.00 | 40 | 1010.9 |
| 20260504184553 | 71 | 202 | 4.0 | 19.0 | 0.00 | 0.00 | 0.00 | 43 | 1011.0 |
| 20260504184052 | 71 | 163 | 11.0 | 19.0 | 0.00 | 0.00 | 0.00 | 41 | 1011.0 |
| 20260504183552 | 71 | 241 | 8.0 | 19.0 | 0.00 | 0.00 | 0.00 | 38 | 1011.3 |
| 20260504183053 | 71 | 252 | 8.0 | 19.0 | 0.00 | 0.00 | 0.00 | 44 | 1011.4 |
| 20260504182552 | 71 | 266 | 5.0 | 16.0 | 0.00 | 0.00 | 0.00 | 41 | 1011.4 |
| 20260504182051 | 71 | 146 | 9.0 | 16.0 | 0.00 | 0.00 | 0.00 | 40 | 1011.4 |
| 20260504181553 | 71 | 225 | 3.0 | 15.0 | 0.00 | 0.00 | 0.00 | 40 | 1011.5 |
| 20260504181051 | 71 | 254 | 6.0 | 15.0 | 0.00 | 0.00 | 0.00 | 43 | 1011.6 |
| 20260504180553 | 71 | 162 | 5.0 | 14.0 | 0.00 | 0.00 | 0.00 | 41 | 1011.5 |
| 20260504180055 | 71 | 0 | 5.0 | 12.0 | 0.00 | 0.00 | 0.00 | 44 | 1011.6 |
| 20260504175551 | 70 | 222 | 4.0 | 14.0 | 0.00 | 0.00 | 0.00 | 43 | 1011.8 |
| 20260504175054 | 69 | 219 | 5.0 | 17.0 | 0.00 | 0.00 | 0.00 | 42 | 1011.8 |
| 20260504174557 | 69 | 165 | 10.0 | 18.0 | 0.00 | 0.00 | 0.00 | 43 | 1011.8 |
| 20260504174051 | 70 | 149 | 10.0 | 18.0 | 0.00 | 0.00 | 0.00 | 42 | 1011.9 |
| 20260504173553 | 70 | 243 | 2.0 | 14.0 | 0.00 | 0.00 | 0.00 | 42 | 1012.0 |
| 20260504173058 | 69 | 150 | 5.0 | 14.0 | 0.00 | 0.00 | 0.00 | 44 | 1012.1 |
| 20260504172550 | 68 | 256 | 4.0 | 14.0 | 0.00 | 0.00 | 0.00 | 44 | 1012.0 |
| 20260504172050 | 68 | 234 | 5.0 | 14.0 | 0.00 | 0.00 | 0.00 | 43 | 1012.0 |
| 20260504171552 | 69 | 227 | 5.0 | 14.0 | 0.00 | 0.00 | 0.00 | 41 | 1012.1 |
| 20260504171052 | 69 | 212 | 5.0 | 13.0 | 0.00 | 0.00 | 0.00 | 42 | 1012.1 |
| 20260504170552 | 69 | 238 | 6.0 | 13.0 | 0.00 | 0.00 | 0.00 | 41 | 1012.2 |
| 20260504151051 | 65 | 253 | 5.0 | 15.0 | 0.00 | 0.00 | 0.00 | 43 | 1013.7 |
| 20260504150554 | 65 | 299 | 6.0 | 19.0 | 0.00 | 0.00 | 0.00 | 44 | 1013.6 |
| 20260504141051 | 62 | 258 | 7.0 | 12.0 | 0.00 | 0.00 | 0.00 | 43 | 1013.9 |
| 20260504140551 | 62 | 261 | 7.0 | 13.0 | 0.00 | 0.00 | 0.00 | 47 | 1014.0 |
| 20260504130553 | 53 | 219 | 2.0 | 5.0 | 0.00 | 0.00 | 0.00 | 66 | 1014.2 |
| 20260504120132 | 46 | 0 | 0.0 | 3.0 | 0.00 | 0.00 | 0.00 | 71 | 1014.6 |
| 20260504110554 | 40 | 0 | 0.0 | 0.0 | 0.00 | 0.00 | 0.00 | 86 | 1014.6 |
| 20260504100552 | 38 | 0 | 0.0 | 0.0 | 0.00 | 0.00 | 0.00 | 84 | 1014.9 |
| 20260504081557 | 38 | 0 | 0.0 | 0.0 | 0.00 | 0.00 | 0.00 | 82 | 1015.3 |
| 20260504081052 | 39 | 0 | 0.0 | 2.0 | 0.00 | 0.00 | 0.00 | 81 | 1015.3 |
| 20260504080552 | 39 | 0 | 0.0 | 3.0 | 0.00 | 0.00 | 0.00 | 81 | 1015.2 |
| 20260504050551 | 42 | 0 | 0.0 | 0.0 | 0.00 | 0.00 | 0.00 | 75 | 1015.3 |
| 20260504045557 | 42 | 0 | 0.0 | 0.0 | 0.00 | 0.00 | 0.00 | 75 | 1015.5 |
| 20260504045052 | 43 | 0 | 0.0 | 0.0 | 0.00 | 0.00 | 0.00 | 75 | 1015.5 |
| 20260504044554 | 43 | 0 | 0.0 | 0.0 | 0.00 | 0.00 | 0.00 | 75 | 1015.5 |
| 20260504044050 | 43 | 0 | 0.0 | 3.0 | 0.00 | 0.00 | 0.00 | 74 | 1015.5 |
| 20260504043550 | 43 | 0 | 0.0 | 3.0 | 0.00 | 0.00 | 0.00 | 73 | 1015.4 |
| 20260504043112 | 43 | 242 | 1.0 | 3.0 | 0.00 | 0.00 | 0.00 | 73 | 1015.4 |
| 20260504042550 | 43 | 0 | 0.0 | 0.0 | 0.00 | 0.00 | 0.00 | 74 | 1015.4 |
| 20260504042055 | 43 | 0 | 0.0 | 0.0 | 0.00 | 0.00 | 0.00 | 74 | 1015.5 |
| 20260504041551 | 44 | 0 | 0.0 | 0.0 | 0.00 | 0.00 | 0.00 | 73 | 1015.5 |
| 20260504041050 | 44 | 0 | 0.0 | 0.0 | 0.00 | 0.00 | 0.00 | 73 | 1015.4 |
| 20260504040553 | 44 | 0 | 0.0 | 0.0 | 0.00 | 0.00 | 0.00 | 73 | 1015.3 |
| 20260504040051 | 44 | 0 | 0.0 | 0.0 | 0.00 | 0.00 | 0.00 | 73 | 1015.4 |
| 20260504035553 | 45 | 0 | 0.0 | 0.0 | 0.00 | 0.00 | 0.00 | 72 | 1015.2 |
| 20260504035050 | 45 | 0 | 0.0 | 0.0 | 0.00 | 0.00 | 0.00 | 72 | 1015.3 |
| 20260504034554 | 45 | 0 | 0.0 | 0.0 | 0.00 | 0.00 | 0.00 | 71 | 1015.2 |
| 20260504034053 | 45 | 0 | 0.0 | 0.0 | 0.00 | 0.00 | 0.00 | 70 | 1015.2 |
| 20260504033554 | 46 | 0 | 0.0 | 0.0 | 0.00 | 0.00 | 0.00 | 71 | 1015.2 |
| 20260504033102 | 46 | 0 | 0.0 | 0.0 | 0.00 | 0.00 | 0.00 | 70 | 1015.1 |
| 20260504032553 | 46 | 0 | 0.0 | 0.0 | 0.00 | 0.00 | 0.00 | 69 | 1015.2 |
| 20260504032050 | 46 | 0 | 0.0 | 0.0 | 0.00 | 0.00 | 0.00 | 66 | 1015.1 |
| 20260504031556 | 46 | 0 | 0.0 | 0.0 | 0.00 | 0.00 | 0.00 | 66 | 1015.1 |
| 20260504031050 | 46 | 0 | 0.0 | 0.0 | 0.00 | 0.00 | 0.00 | 65 | 1015.1 |
| 20260504030550 | 46 | 0 | 0.0 | 0.0 | 0.00 | 0.00 | 0.00 | 64 | 1015.0 |
| 20260504030109 | 47 | 0 | 0.0 | 0.0 | 0.00 | 0.00 | 0.00 | 63 | 1015.0 |
| 20260504025550 | 47 | 0 | 0.0 | 0.0 | 0.00 | 0.00 | 0.00 | 63 | 1014.9 |
| 20260504025054 | 47 | 0 | 0.0 | 0.0 | 0.00 | 0.00 | 0.00 | 63 | 1014.9 |
| 20260504024553 | 48 | 0 | 0.0 | 0.0 | 0.00 | 0.00 | 0.00 | 62 | 1014.9 |
| 20260504024050 | 48 | 0 | 0.0 | 0.0 | 0.00 | 0.00 | 0.00 | 63 | 1014.8 |
| 20260504023550 | 48 | 0 | 0.0 | 0.0 | 0.00 | 0.00 | 0.00 | 63 | 1014.9 |
| 20260504023057 | 48 | 0 | 0.0 | 3.0 | 0.00 | 0.00 | 0.00 | 64 | 1014.7 |
| 20260504022551 | 49 | 0 | 0.0 | 3.0 | 0.00 | 0.00 | 0.00 | 60 | 1014.8 |
| 20260504022054 | 49 | 0 | 1.0 | 3.0 | 0.00 | 0.00 | 0.00 | 57 | 1014.8 |
| 20260504021555 | 49 | 0 | 0.0 | 1.0 | 0.00 | 0.00 | 0.00 | 55 | 1014.7 |
| 20260504021051 | 49 | 0 | 0.0 | 0.0 | 0.00 | 0.00 | 0.00 | 55 | 1014.8 |
| 20260504020552 | 49 | 0 | 0.0 | 0.0 | 0.00 | 0.00 | 0.00 | 54 | 1014.9 |
| 20260504020057 | 49 | 0 | 0.0 | 2.0 | 0.00 | 0.00 | 0.00 | 53 | 1014.8 |
| 20260504015552 | 50 | 0 | 0.0 | 4.0 | 0.00 | 0.00 | 0.00 | 54 | 1014.8 |
| 20260504015052 | 50 | 242 | 1.0 | 4.0 | 0.00 | 0.00 | 0.00 | 55 | 1014.7 |
| 20260504014554 | 50 | 242 | 0.0 | 3.0 | 0.00 | 0.00 | 0.00 | 55 | 1014.7 |
| 20260504014051 | 50 | 242 | 2.0 | 3.0 | 0.00 | 0.00 | 0.00 | 52 | 1014.8 |
| 20260504013554 | 50 | 242 | 0.0 | 4.0 | 0.00 | 0.00 | 0.00 | 53 | 1014.7 |
| 20260504013055 | 50 | 0 | 0.0 | 4.0 | 0.00 | 0.00 | 0.00 | 54 | 1014.7 |
| 20260504012552 | 50 | 242 | 2.0 | 4.0 | 0.00 | 0.00 | 0.00 | 54 | 1014.6 |
| 20260504012051 | 51 | 275 | 2.0 | 4.0 | 0.00 | 0.00 | 0.00 | 55 | 1014.5 |
| 20260504011553 | 51 | 276 | 0.0 | 3.0 | 0.00 | 0.00 | 0.00 | 52 | 1014.5 |
| 20260504011050 | 51 | 0 | 0.0 | 2.0 | 0.00 | 0.00 | 0.00 | 50 | 1014.4 |
| 20260504010553 | 52 | 0 | 0.0 | 3.0 | 0.00 | 0.00 | 0.00 | 51 | 1014.4 |
| 20260504010059 | 52 | 276 | 0.0 | 3.0 | 0.00 | 0.00 | 0.00 | 50 | 1014.5 |
| 20260504005550 | 53 | 276 | 1.0 | 3.0 | 0.00 | 0.00 | 0.00 | 47 | 1014.2 |
| 20260504005050 | 53 | 276 | 0.0 | 3.0 | 0.00 | 0.00 | 0.00 | 46 | 1014.4 |
| 20260504004551 | 54 | 276 | 1.0 | 3.0 | 0.00 | 0.00 | 0.00 | 46 | 1014.3 |
| 20260504004051 | 54 | 276 | 2.0 | 3.0 | 0.00 | 0.00 | 0.00 | 45 | 1014.5 |
| 20260504003550 | 55 | 0 | 1.0 | 4.0 | 0.00 | 0.00 | 0.00 | 43 | 1014.4 |
| 20260504003053 | 56 | 277 | 2.0 | 6.0 | 0.00 | 0.00 | 0.00 | 41 | 1014.2 |
| 20260504002553 | 56 | 277 | 2.0 | 6.0 | 0.00 | 0.00 | 0.00 | 40 | 1014.0 |
| 20260504002054 | 56 | 276 | 3.0 | 6.0 | 0.00 | 0.00 | 0.00 | 39 | 1014.1 |
| 20260504001558 | 56 | 276 | 3.0 | 7.0 | 0.00 | 0.00 | 0.00 | 40 | 1014.1 |
| 20260504001050 | 57 | 276 | 3.0 | 7.0 | 0.00 | 0.00 | 0.00 | 39 | 1014.1 |
| 20260504000549 | 57 | 276 | 3.0 | 8.0 | 0.00 | 0.00 | 0.00 | 39 | 1013.9 |
| 20260504000058 | 57 | 277 | 4.0 | 8.0 | 0.00 | 0.00 | 0.00 | 39 | 1014.0 |
| 20260503235549 | 58 | 279 | 4.0 | 8.0 | 0.00 | 0.00 | 0.00 | 38 | 1013.9 |
| 20260503235053 | 58 | 279 | 4.0 | 7.0 | 0.00 | 0.00 | 0.00 | 38 | 1013.8 |
| 20260503234553 | 58 | 286 | 3.0 | 8.0 | 0.00 | 0.00 | 0.00 | 38 | 1013.8 |
| 20260503234051 | 58 | 283 | 4.0 | 10.0 | 0.00 | 0.00 | 0.00 | 37 | 1013.7 |
| 20260503233550 | 59 | 271 | 6.0 | 10.0 | 0.00 | 0.00 | 0.00 | 37 | 1013.6 |
| 20260503233053 | 59 | 271 | 5.0 | 8.0 | 0.00 | 0.00 | 0.00 | 37 | 1013.5 |
| 20260503232555 | 59 | 265 | 4.0 | 10.0 | 0.00 | 0.00 | 0.00 | 37 | 1013.7 |
| 20260503232051 | 59 | 291 | 5.0 | 12.0 | 0.00 | 0.00 | 0.00 | 36 | 1013.5 |
| 20260503231555 | 60 | 278 | 6.0 | 13.0 | 0.00 | 0.00 | 0.00 | 35 | 1013.4 |
| 20260503231051 | 60 | 284 | 7.0 | 13.0 | 0.00 | 0.00 | 0.00 | 36 | 1013.6 |
| 20260503230552 | 60 | 281 | 8.0 | 13.0 | 0.00 | 0.00 | 0.00 | 36 | 1013.7 |
| 20260503230110 | 60 | 279 | 7.0 | 12.0 | 0.00 | 0.00 | 0.00 | 36 | 1013.7 |
| 20260503225552 | 61 | 273 | 7.0 | 12.0 | 0.00 | 0.00 | 0.00 | 34 | 1013.6 |
| 20260503225052 | 61 | 268 | 6.0 | 11.0 | 0.00 | 0.00 | 0.00 | 35 | 1013.6 |
| 20260503224552 | 61 | 265 | 7.0 | 13.0 | 0.00 | 0.00 | 0.00 | 33 | 1013.6 |
| 20260503224052 | 62 | 291 | 7.0 | 13.0 | 0.00 | 0.00 | 0.00 | 33 | 1013.6 |
| 20260503223552 | 62 | 298 | 7.0 | 12.0 | 0.00 | 0.00 | 0.00 | 33 | 1013.5 |
| 20260503223109 | 61 | 286 | 7.0 | 12.0 | 0.00 | 0.00 | 0.00 | 34 | 1013.6 |
| 20260503222551 | 61 | 319 | 7.0 | 17.0 | 0.00 | 0.00 | 0.00 | 34 | 1013.7 |
| 20260503222051 | 61 | 274 | 12.0 | 17.0 | 0.00 | 0.00 | 0.00 | 34 | 1013.7 |
| 20260503221556 | 61 | 252 | 8.0 | 18.0 | 0.00 | 0.00 | 0.00 | 33 | 1013.7 |
| 20260503221052 | 61 | 292 | 10.0 | 18.0 | 0.00 | 0.00 | 0.00 | 32 | 1013.8 |
| 20260503220553 | 62 | 288 | 6.0 | 12.0 | 0.00 | 0.00 | 0.00 | 32 | 1013.7 |
| 20260503220057 | 62 | 284 | 7.0 | 13.0 | 0.00 | 0.00 | 0.00 | 33 | 1013.9 |
| 20260503215551 | 61 | 296 | 8.0 | 16.0 | 0.00 | 0.00 | 0.00 | 34 | 1014.0 |
| 20260503215052 | 62 | 273 | 10.0 | 16.0 | 0.00 | 0.00 | 0.00 | 33 | 1013.8 |
| 20260503214556 | 62 | 281 | 6.0 | 16.0 | 0.00 | 0.00 | 0.00 | 31 | 1013.9 |
| 20260503214052 | 62 | 312 | 9.0 | 15.0 | 0.00 | 0.00 | 0.00 | 34 | 1013.7 |
| 20260503213552 | 61 | 297 | 10.0 | 15.0 | 0.00 | 0.00 | 0.00 | 35 | 1013.7 |
| 20260503213056 | 62 | 292 | 8.0 | 18.0 | 0.00 | 0.00 | 0.00 | 32 | 1013.8 |
| 20260503212552 | 62 | 295 | 12.0 | 18.0 | 0.00 | 0.00 | 0.00 | 32 | 1013.8 |
| 20260503212052 | 62 | 262 | 8.0 | 17.0 | 0.00 | 0.00 | 0.00 | 34 | 1013.8 |
| 20260503211551 | 61 | 301 | 9.0 | 17.0 | 0.00 | 0.00 | 0.00 | 34 | 1013.6 |
| 20260503211052 | 62 | 277 | 11.0 | 17.0 | 0.00 | 0.00 | 0.00 | 34 | 1013.6 |
| 20260503210553 | 62 | 292 | 7.0 | 16.0 | 0.00 | 0.00 | 0.00 | 32 | 1013.7 |
| 20260503210052 | 62 | 291 | 9.0 | 21.0 | 0.00 | 0.00 | 0.00 | 32 | 1013.7 |
| 20260503205552 | 62 | 315 | 8.0 | 21.0 | 0.00 | 0.00 | 0.00 | 32 | 1013.7 |
| 20260503205053 | 63 | 296 | 10.0 | 17.0 | 0.00 | 0.00 | 0.00 | 33 | 1013.7 |
| 20260503204554 | 62 | 256 | 11.0 | 19.0 | 0.00 | 0.00 | 0.00 | 33 | 1013.6 |
| 20260503204051 | 62 | 290 | 8.0 | 19.0 | 0.00 | 0.00 | 0.00 | 33 | 1013.7 |
| 20260503203552 | 61 | 270 | 7.0 | 12.0 | 0.00 | 0.00 | 0.00 | 33 | 1013.7 |
| 20260503203053 | 60 | 284 | 7.0 | 12.0 | 0.00 | 0.00 | 0.00 | 37 | 1013.6 |
| 20260503202551 | 60 | 322 | 6.0 | 16.0 | 0.00 | 0.00 | 0.00 | 36 | 1013.8 |
| 20260503202051 | 60 | 300 | 9.0 | 22.0 | 0.00 | 0.00 | 0.00 | 35 | 1013.8 |
| 20260503201555 | 61 | 310 | 12.0 | 22.0 | 0.00 | 0.00 | 0.00 | 32 | 1013.9 |
| 20260503201052 | 61 | 263 | 11.0 | 17.0 | 0.00 | 0.00 | 0.00 | 32 | 1013.8 |
| 20260503200550 | 61 | 286 | 6.0 | 14.0 | 0.00 | 0.00 | 0.00 | 35 | 1013.9 |
| 20260503200054 | 61 | 306 | 10.0 | 16.0 | 0.00 | 0.00 | 0.00 | 33 | 1013.8 |
| 20260503195554 | 61 | 289 | 9.0 | 16.0 | 0.00 | 0.00 | 0.00 | 35 | 1014.0 |
| 20260503195050 | 61 | 309 | 9.0 | 18.0 | 0.00 | 0.00 | 0.00 | 36 | 1014.0 |
| 20260503194606 | 61 | 281 | 12.0 | 20.0 | 0.00 | 0.00 | 0.00 | 33 | 1014.2 |
| 20260503194053 | 62 | 299 | 14.0 | 20.0 | 0.00 | 0.00 | 0.00 | 31 | 1014.2 |
| 20260503193554 | 61 | 331 | 10.0 | 16.0 | 0.00 | 0.00 | 0.00 | 33 | 1014.2 |
| 20260503193053 | 60 | 311 | 6.0 | 13.0 | 0.00 | 0.00 | 0.00 | 34 | 1014.2 |
| 20260503192554 | 60 | 303 | 8.0 | 17.0 | 0.00 | 0.00 | 0.00 | 35 | 1014.3 |
| 20260503192057 | 60 | 281 | 10.0 | 17.0 | 0.00 | 0.00 | 0.00 | 33 | 1014.5 |
| 20260503191600 | 60 | 292 | 6.0 | 16.0 | 0.00 | 0.00 | 0.00 | 34 | 1014.5 |
| 20260503191055 | 59 | 259 | 7.0 | 20.0 | 0.00 | 0.00 | 0.00 | 37 | 1014.7 |